Weather History for KICR - September, 2013

Change the Weather History Date:

Saturday, September 28, 2013

  Actual Average Record
Temperature  
Mean Temperature 57 °F 58 °F  
Max Temperature 70 °F 71 °F 95 °F (2011)
Min Temperature 43 °F 45 °F 43 °F (2013)
Degree Days  
Heating Degree Days 8 8  
Month to date heating degree days 48 112  
Since 1 July heating degree days 55 126  
Cooling Degree Days 0 1  
Month to date cooling degree days 208 99  
Year to date cooling degree days 999 905  
Growing Degree Days 6 (Base 50)    
Moisture  
Dew Point 40 °F    
Average Humidity 59    
Maximum Humidity 93    
Minimum Humidity 25    
Precipitation  
Precipitation 0.02 in 0.07 in 0.02 in (2013)
Month to date precipitation 0.74 1.88  
Year to date precipitation 16.73 18.88  
Sea Level Pressure  
Sea Level Pressure 29.91 in    
Wind  
Wind Speed 13 mph (West)    
Max Wind Speed 23 mph    
Max Gust Speed 31 mph    
Visibility 10 miles    
Events Rain    
T = Trace of Precipitation, MM = Missing Value Source: NWS Daily Summary

Daily Weather History Graph

Daily Weather History Graph

Search for Another Location

Airport or City:

Trip Planner

Search our weather history database for the weather conditions in past years. The results will help you decide how hot, cold, wet, or windy it might be!

Date:

Astronomy

Sep. 28, 2013 Rise Set
Actual Time 7:33 AM CDT 7:25 PM CDT
Civil Twilight 7:05 AM CDT 7:53 PM CDT
Nautical Twilight 6:32 AM CDT 8:26 PM CDT
Astronomical Twilight 5:58 AM CDT 9:00 PM CDT
Moon 1:13 AM CDT (9/28) 3:53 PM CDT (9/28)
Length of Visible Light 12h 48m
Length of Day
11h 51m
Waning Crescent, 36% of the Moon is Illuminated
Sep 28
Waning Crescent
Oct 4
New
Oct 11
First Quarter
Oct 18
Full
Oct 26
Last Quarter

Hourly Weather History & Observations

Time (CDT) Temp. Windchill Dew Point Humidity Pressure Visibility Wind Dir Wind Speed Gust Speed Precip Events Conditions
12:05 AM 48.2 °F - 46.4 °F 93% 29.84 in 8.0 mi NNW 16.1 mph - 0.01 in Rain Light Rain
12:53 AM 48.0 °F - 46.0 °F 93% 29.83 in 8.0 mi NNW 16.1 mph - 0.03 in Rain Rain
1:53 AM 46.9 °F - 45.0 °F 93% 29.86 in 10.0 mi WNW 16.1 mph - 0.01 in   Overcast
2:04 AM 46.4 °F 40.1 °F 44.6 °F 93% 29.86 in 10.0 mi WNW 15.0 mph 23.0 mph N/A   Overcast
2:53 AM 46.9 °F - 45.0 °F 93% 29.88 in 10.0 mi WNW 13.8 mph - 0.00 in   Overcast
3:40 AM 46.4 °F 39.2 °F 44.6 °F 93% 29.89 in 10.0 mi West 18.4 mph - 0.00 in   Overcast
3:53 AM 46.9 °F - 45.0 °F 93% 29.89 in 10.0 mi WNW 16.1 mph - 0.00 in   Overcast
4:00 AM 46.4 °F 39.5 °F 44.6 °F 93% 29.88 in 10.0 mi WNW 17.3 mph - 0.00 in Rain Light Rain
4:32 AM 46.4 °F 41.5 °F 44.6 °F 93% 29.87 in 10.0 mi WNW 10.4 mph - 0.01 in Rain Light Rain
4:53 AM 46.0 °F 40.2 °F 44.1 °F 93% 29.87 in 10.0 mi WNW 12.7 mph - 0.01 in Rain Light Rain
5:53 AM 46.0 °F 40.2 °F 43.0 °F 89% 29.88 in 10.0 mi West 12.7 mph - N/A   Overcast
6:53 AM 44.1 °F 39.0 °F 42.1 °F 93% 29.91 in 10.0 mi West 9.2 mph - N/A   Clear
7:53 AM 43.0 °F 37.2 °F 39.9 °F 89% 29.93 in 10.0 mi West 10.4 mph - N/A   Clear
8:53 AM 45.0 °F 39.3 °F 41.0 °F 86% 29.94 in 10.0 mi West 11.5 mph - N/A   Clear
9:53 AM 50.0 °F - 42.1 °F 74% 29.94 in 10.0 mi West 17.3 mph - N/A   Clear
10:53 AM 55.0 °F - 39.0 °F 55% 29.95 in 10.0 mi West 19.6 mph 27.6 mph N/A   Clear
11:53 AM 57.9 °F - 39.0 °F 49% 29.95 in 10.0 mi West 19.6 mph 25.3 mph N/A   Clear
12:53 PM 61.0 °F - 39.0 °F 44% 29.95 in 10.0 mi West 20.7 mph 24.2 mph N/A   Clear
1:53 PM 64.9 °F - 36.0 °F 34% 29.94 in 10.0 mi West 18.4 mph 31.1 mph N/A   Clear
2:53 PM 66.9 °F - 34.0 °F 30% 29.92 in 10.0 mi West 16.1 mph 28.8 mph N/A   Clear
3:53 PM 68.0 °F - 32.0 °F 26% 29.92 in 10.0 mi West 20.7 mph 28.8 mph N/A   Clear
4:53 PM 68.0 °F - 32.0 °F 26% 29.93 in 10.0 mi West 15.0 mph 26.5 mph N/A   Clear
5:53 PM 69.1 °F - 32.0 °F 25% 29.93 in 10.0 mi West 13.8 mph 25.3 mph N/A   Clear
6:53 PM 64.9 °F - 35.1 °F 33% 29.94 in 10.0 mi WSW 8.1 mph - N/A   Clear
7:53 PM 60.1 °F - 36.0 °F 41% 29.96 in 10.0 mi SW 4.6 mph - N/A   Clear
8:53 PM 57.9 °F - 35.1 °F 42% 29.96 in 10.0 mi SW 5.8 mph - N/A   Clear
9:53 PM 57.9 °F - 34.0 °F 41% 29.95 in 10.0 mi SSW 5.8 mph - N/A   Clear
10:53 PM 55.0 °F - 35.1 °F 47% 29.96 in 10.0 mi South 5.8 mph - N/A   Clear
11:53 PM 53.1 °F - 37.0 °F 55% 29.95 in 10.0 mi South 6.9 mph - N/A   Clear